FW2418 Weather Reports


Display with metric or nautical units.
time (UTC)temp
F
wind
direction
speed
MPH
gust
MPH
rain 1hr
in
rain 24hr
in
rain mn
in
humidity
%
barometer
mb
20260902125749 82 21 2.0 9.0 0.00 0.00 0.00 93 1014.0
20260902124748 81 54 2.0 4.0 0.00 0.00 0.00 95 1013.7
20260902123748 80 22 1.0 3.0 0.00 0.00 0.00 99 1013.7
20260902122747 79 6 1.0 2.0 0.00 0.00 0.00 99 1013.7
20260902121746 78 26 1.0 2.0 0.00 0.00 0.00 99 1013.7
20260902120745 77 6 1.0 1.0 0.00 0.00 0.00 99 1013.7
20260902115745 76 6 0.0 1.0 0.00 0.00 0.00 99 1013.7
20260902114712 76 5 0.0 0.0 0.00 0.00 0.00 99 1013.7
20260902113712 76 1 0.0 0.0 0.00 0.00 0.00 99 1013.7
20260902112710 76 1 0.0 0.0 0.00 0.00 0.00 99 1013.3
20260902111639 76 360 0.0 0.0 0.00 0.00 0.00 99 1013.3
20260902110606 76 1 0.0 0.0 0.00 0.00 0.00 99 1013.3
20260902105605 76 360 0.0 0.0 0.00 0.00 0.00 99 1013.3
20260902104605 76 1 0.0 0.0 0.00 0.00 0.00 99 1013.3
20260902103604 76 360 0.0 0.0 0.00 0.00 0.00 99 1013.0
20260902102603 75 1 0.0 0.0 0.00 0.00 0.00 99 1013.0
20260902101602 75 1 0.0 0.0 0.00 0.00 0.00 99 1013.0
20260902100601 75 1 0.0 0.0 0.00 0.00 0.00 99 1013.0
20260902095529 75 1 0.0 0.0 0.00 0.00 0.00 99 1013.0
20260902094529 75 1 0.0 0.0 0.00 0.00 0.00 99 1012.7
20260902093425 75 1 0.0 0.0 0.00 0.00 0.00 99 1012.7
20260902092425 75 1 0.0 1.0 0.00 0.00 0.00 99 1012.7
20260902091424 75 1 0.0 1.0 0.00 0.00 0.00 99 1012.3
20260902090423 75 15 0.0 1.0 0.00 0.00 0.00 99 1012.3
20260902085422 75 330 0.0 1.0 0.00 0.00 0.00 99 1012.3
20260902084421 76 323 0.0 1.0 0.00 0.00 0.00 99 1012.3
20260902083420 76 326 0.0 1.0 0.00 0.00 0.00 99 1012.3
20260902082419 75 334 1.0 1.0 0.00 0.00 0.00 99 1012.3
20260902081418 76 13 0.0 0.0 0.00 0.00 0.00 99 1012.7
20260902080346 76 13 0.0 0.0 0.00 0.00 0.00 98 1012.7
20260902075345 76 13 0.0 0.0 0.00 0.00 0.00 98 1012.7
20260902074344 76 13 0.0 0.0 0.00 0.00 0.00 98 1012.7
20260902073108 75 13 0.0 0.0 0.00 0.00 0.00 98 1012.7
20260902072005 76 13 0.0 0.0 0.00 0.00 0.00 98 1012.7
20260902071004 76 13 0.0 0.0 0.00 0.00 0.00 98 1012.7
20260902070004 76 13 0.0 0.0 0.00 0.00 0.00 98 1013.0
20260902065002 76 13 0.0 1.0 0.00 0.00 0.00 98 1013.0
20260902064001 76 13 0.0 1.0 0.00 0.00 0.00 98 1013.0
20260902063000 76 32 0.0 0.0 0.00 0.00 0.00 98 1013.0
20260902062000 76 32 0.0 0.0 0.00 0.00 0.00 98 1013.0
20260902060959 76 32 0.0 0.0 0.00 0.00 0.00 98 1013.0
20260902055927 77 32 0.0 0.0 0.00 0.00 0.00 98 1013.0
20260902054926 77 32 0.0 0.0 0.00 0.00 0.00 98 1013.0
20260902053925 77 32 0.0 0.0 0.00 0.00 0.00 97 1013.0
20260902052822 77 32 0.0 1.0 0.00 0.00 0.00 97 1013.0
20260902051821 77 33 0.0 1.0 0.00 0.00 0.00 97 1013.0
20260902050749 77 34 0.0 0.0 0.00 0.00 0.00 97 1013.0
20260902045717 77 34 0.0 0.0 0.00 0.00 0.00 97 1013.0
20260902044645 78 34 0.0 1.0 0.00 0.00 0.00 97 1013.0
20260902043644 78 34 0.0 1.0 0.00 0.00 0.00 96 1013.0
20260902042643 78 34 0.0 1.0 0.00 0.00 0.00 96 1013.4
20260902041642 78 16 0.0 0.0 0.00 0.00 0.00 96 1013.4
20260902040611 77 15 0.0 0.0 0.00 0.00 0.00 96 1013.4
20260902035610 77 16 0.0 0.0 0.00 0.00 0.00 96 1013.7
20260902034609 77 15 0.0 0.0 0.00 0.00 0.00 96 1013.7
20260902033608 78 16 0.0 0.0 0.00 0.00 0.00 95 1014.0
20260902032608 78 16 0.0 0.0 0.00 0.00 0.00 95 1014.0
20260902031607 78 16 0.0 1.0 0.00 0.00 0.00 95 1014.0
20260902030535 78 15 0.0 1.0 0.00 0.00 0.00 95 1014.0
20260902025534 78 16 0.0 1.0 0.00 0.00 0.00 95 1014.0
20260902024502 78 16 1.0 1.0 0.00 0.00 0.00 95 1014.0
20260902023501 78 16 0.0 0.0 0.00 0.00 0.00 94 1014.0
20260902022500 78 16 0.0 0.0 0.00 0.00 0.00 94 1014.0
20260902021459 78 16 0.0 0.0 0.00 0.00 0.00 94 1014.4
20260902020458 79 16 0.0 0.0 0.00 0.00 0.00 94 1014.4
20260902015458 79 15 0.0 0.0 0.00 0.00 0.00 93 1014.0
20260902014426 79 16 0.0 0.0 0.00 0.00 0.00 93 1014.0
20260902013425 79 16 0.0 0.0 0.00 0.00 0.00 93 1014.0
20260902012424 79 15 0.0 0.0 0.00 0.00 0.00 92 1014.0
20260902011423 80 16 0.0 0.0 0.00 0.00 0.00 92 1013.7
20260902010422 80 16 0.0 1.0 0.00 0.00 0.00 91 1013.7
20260902005421 80 15 0.0 1.0 0.00 0.00 0.00 91 1013.3
20260902004420 80 8 0.0 1.0 0.00 0.00 0.00 90 1013.3
20260902003419 81 5 0.0 1.0 0.00 0.00 0.00 89 1013.7
20260902002418 81 13 1.0 1.0 0.00 0.00 0.00 89 1013.7
20260902001417 81 34 1.0 2.0 0.00 0.00 0.00 88 1013.7
20260902000416 81 6 1.0 3.0 0.00 0.00 0.00 87 1013.7
20260901235415 82 358 1.0 3.0 0.00 0.00 0.00 87 1013.7
20260901234414 82 61 1.0 3.0 0.00 0.00 0.00 86 1013.7
20260901233413 82 8 2.0 4.0 0.00 0.00 0.00 85 1013.7
20260901232413 82 57 1.0 3.0 0.00 0.00 0.00 85 1013.7
20260901231412 83 357 1.0 4.0 0.00 0.00 0.00 85 1013.3
20260901230411 83 61 2.0 5.0 0.00 0.00 0.00 85 1013.3
20260901225339 84 47 2.0 5.0 0.00 0.00 0.00 84 1013.3
20260901224306 84 37 2.0 5.0 0.00 0.00 0.00 84 1013.3
20260901223305 84 43 2.0 5.0 0.00 0.00 0.00 83 1013.3
20260901222306 84 42 2.0 7.0 0.00 0.00 0.00 83 1013.0
20260901221304 85 47 2.0 8.0 0.00 0.00 0.00 81 1013.0
20260901220232 85 60 2.0 8.0 0.00 0.00 0.00 83 1012.7
20260901215231 85 34 2.0 8.0 0.00 0.00 0.00 83 1012.7
20260901214230 85 49 4.0 9.0 0.00 0.00 0.00 81 1012.7
20260901213229 85 52 2.0 7.0 0.00 0.00 0.00 80 1013.0
20260901212228 85 49 2.0 5.0 0.00 0.00 0.00 78 1012.7
20260901211228 86 66 2.0 6.0 0.00 0.00 0.00 77 1013.0
20260901210125 86 46 2.0 8.0 0.00 0.00 0.00 75 1012.7
20260901205052 86 77 2.0 9.0 0.00 0.00 0.00 75 1013.0
20260901204020 86 38 2.0 8.0 0.00 0.00 0.00 76 1013.0
20260901203020 86 33 3.0 6.0 0.00 0.00 0.00 77 1013.0
20260901202019 86 40 2.0 5.0 0.00 0.00 0.00 75 1013.0
20260901201018 87 60 2.0 5.0 0.00 0.00 0.00 75 1013.0
20260901195946 87 67 2.0 5.0 0.00 0.00 0.00 73 1013.0
20260901194945 87 45 1.0 5.0 0.00 0.00 0.00 73 1013.4
20260901193945 87 109 1.0 7.0 0.00 0.00 0.00 73 1013.4
20260901192944 87 84 2.0 7.0 0.00 0.00 0.00 73 1013.4
20260901191943 87 27 2.0 6.0 0.00 0.00 0.00 74 1013.7
20260901190911 87 57 2.0 7.0 0.00 0.00 0.00 73 1013.7
20260901185910 88 48 2.0 5.0 0.00 0.00 0.00 71 1013.7
20260901184838 89 28 2.0 6.0 0.00 0.00 0.00 70 1013.7
20260901183837 89 33 2.0 6.0 0.00 0.00 0.00 71 1013.7
20260901182837 88 117 1.0 6.0 0.00 0.00 0.00 73 1013.7
20260901181836 88 84 2.0 7.0 0.00 0.00 0.00 75 1013.7
20260901180835 87 33 3.0 9.0 0.00 0.00 0.00 75 1014.0
20260901175803 87 80 2.0 10.0 0.00 0.00 0.00 76 1014.0
20260901174802 89 53 3.0 10.0 0.00 0.00 0.00 74 1014.4
20260901173801 90 45 2.0 6.0 0.00 0.00 0.00 72 1014.4
20260901172801 89 68 2.0 5.0 0.00 0.00 0.00 73 1014.4
20260901171800 86 36 2.0 4.0 0.00 0.00 0.00 77 1014.4
20260901170759 85 25 1.0 4.0 0.00 0.00 0.00 82 1014.7
20260901165758 86 319 1.0 6.0 0.00 0.00 0.00 80 1014.7
20260901164757 86 309 1.0 7.0 0.00 0.00 0.00 81 1014.7
20260901163757 88 340 2.0 8.0 0.00 0.00 0.00 76 1014.7
20260901162756 88 62 2.0 7.0 0.00 0.00 0.00 73 1014.7
20260901161755 88 52 1.0 7.0 0.00 0.00 0.00 73 1014.7
20260901160754 89 24 2.0 7.0 0.00 0.00 0.00 72 1015.1
20260901155753 90 16 2.0 7.0 0.00 0.00 0.00 71 1015.1
20260901154752 88 17 3.0 8.0 0.00 0.00 0.00 72 1015.1
20260901153752 88 22 2.0 5.0 0.00 0.00 0.00 72 1015.1
20260901152751 89 54 2.0 6.0 0.00 0.00 0.00 71 1015.1
20260901151750 89 42 2.0 6.0 0.00 0.00 0.00 74 1015.1
20260901150749 87 12 2.0 6.0 0.00 0.00 0.00 77 1015.1
20260901145748 86 20 1.0 6.0 0.00 0.00 0.00 77 1015.1
20260901144747 87 26 2.0 6.0 0.00 0.00 0.00 77 1015.1
20260901143747 87 10 2.0 5.0 0.00 0.00 0.00 79 1015.1
20260901142714 87 24 2.0 4.0 0.00 0.00 0.00 80 1015.1
20260901141713 86 27 2.0 4.0 0.00 0.00 0.00 82 1014.7
20260901140641 85 336 1.0 4.0 0.00 0.00 0.00 82 1014.7
20260901135641 85 331 1.0 5.0 0.00 0.00 0.00 83 1015.1
20260901134640 84 42 2.0 5.0 0.00 0.00 0.00 84 1014.7
20260901133639 84 11 2.0 4.0 0.00 0.00 0.00 84 1014.7
20260901132639 84 64 1.0 4.0 0.00 0.00 0.00 85 1014.7
20260901131638 83 24 2.0 5.0 0.00 0.00 0.00 88 1014.7
20260901130637 81 65 2.0 5.0 0.00 0.00 0.00 91 1014.7